Location: Sevilla
(37.3933°N, 5.9839°W)
Time: 04:54:18
(UTC+02:00)

Transit 2A Rocket - Pass Details

Date: 25 June 2024
Orbit: 582 x 910 km, 66.7° (Epoch: 15 July)

Event Time Altitude Azimuth Distance (km) Brightness Sun altitude
Rises 07:58:23 0° 322° (NW) 3,538 8.3 8.7°
Reaches altitude 10° 08:01:08 10° 313° (NW) 2,600 7.5 9.2°
Maximum altitude 08:06:27 32° 252° (WSW) 1,489 6.1 10.2°
Drops below altitude 10° 08:11:39 10° 191° (S) 2,530 7.4 11.1°
Sets 08:14:19 0° 181° (S) 3,429 8.1 11.6°
